Location: Bruch
(44.2051°N, 0.4120°E)
Time: 05:29:14
(UTC+00:00)

NOAA 6 - Pass Details

Date: 29 November 2020
Orbit: 773 x 786 km, 98.7° (Epoch: 24 January)

Event Time Altitude Azimuth Distance (km) Brightness Sun altitude
Rises 06:05:14 0° 13° (NNE) 3,261 7.2 -11.7°
Reaches altitude 10° 06:07:33 10° 13° (NNE) 2,329 6.4 -11.3°
Maximum altitude 06:12:41 87° 287° (WNW) 780 4.0 -10.4°
Drops below altitude 10° 06:17:48 10° 197° (SSW) 2,312 6.5 -9.6°
Sets 06:20:06 0° 197° (SSW) 3,236 7.3 -9.2°
